Location: Dodge City Co - Operative Exchange Grain Elevator Number 8
(38.1218°N, 99.7124°W)
Time: 07:33:34
(UTC+00:00)

Cosmos 2251 Rocket - Pass Details

Date: 03 March 2021
Orbit: 764 x 792 km, 74.0° (Epoch: 13 April)

Event Time Altitude Azimuth Distance (km) Brightness Sun altitude
Exits shadow 12:09:57 - 219° (SW) 2,978 6.2 -12.1°
Reaches altitude 10° 12:11:45 10° 226° (SW) 2,329 5.6 -11.7°
Maximum altitude 12:16:41 39° 294° (WNW) 1,171 4.0 -10.8°
Drops below altitude 10° 12:21:41 10° 3° (N) 2,357 6.1 -9.8°
Sets 12:24:15 0° 11° (N) 3,293 6.9 -9.3°
